This demonstration page uses our WeatherBlox Daily Observations layout. Learn more.

Left ArrowRight Arrow

39.01783, -85.05884

Hourly Observations for October 18, 2018

Temp ( °F °C ) Dew Point ( °F °C ) Humidity (%) Winds ( mph kmh ) Pressure ( in mb ) Visibility ( mi km ) Precip ( " mm )
12:52 am 00:52 Cloudy 43 6.1 32 undefined 65 65 NNE 9 15 30.45 1031 10 16 N/A
1:52 am 01:52 Cloudy 42 5.6 32 undefined 68 68 NNE 10 17 30.47 1032 10 16 N/A
2:52 am 02:52 Mostly Cloudy 41 5 32 undefined 70 70 NE 7 11 30.46 1032 10 16 N/A
3:52 am 03:52 Mostly Cloudy 38 3.3 32 undefined 79 79 N N/A 30.47 1032 10 16 N/A
4:52 am 04:52 Partly Cloudy 35 1.7 32 undefined 89 89 N N/A 30.48 1032 10 16 N/A
5:52 am 05:52 Mostly Clear 34 1.1 32 undefined 92 92 N N/A 30.49 1033 10 16 N/A
6:52 am 06:52 Mostly Clear 36 2.2 31 -0.6 82 82 N N/A 30.51 1033 10 16 N/A
7:52 am 07:52 Mostly Sunny 35 1.7 32 undefined 89 89 N N/A 30.52 1034 10 16 N/A
8:52 am 08:52 Mostly Sunny 39 3.9 35 1.7 86 86 NNE 5 7 30.52 1034 10 16 N/A
9:52 am 09:52 Mostly Sunny 45 7.2 32 undefined 61 61 ENE 9 15 30.54 1034 10 16 N/A
10:52 am 10:52 Sunny 47 8.3 27 -2.8 46 46 E 9 15 30.55 1034 10 16 N/A
11:52 am 11:52 Sunny 50 10 29 -1.7 44 44 VRB 6 9 30.55 1035 10 16 N/A
12:52 pm 12:52 Sunny 51 10.6 29 -1.7 43 43 VRB 5 7 30.54 1034 10 16 N/A
1:52 pm 13:52 Sunny 53 11.7 31 -0.6 43 43 NNE 9 15 30.51 1033 10 16 N/A
2:52 pm 14:52 Sunny 53 11.7 29 -1.7 40 40 N N/A 30.48 1032 10 16 N/A
3:52 pm 15:52 Sunny 56 13.3 31 -0.6 39 39 VRB 3 6 30.46 1032 10 16 N/A
4:52 pm 16:52 Sunny 56 13.3 30 -1.1 37 37 N N/A 30.45 1031 10 16 N/A
5:52 pm 17:52 Sunny 55 12.8 30 -1.1 38 38 N N/A 30.44 1031 10 16 N/A
6:52 pm 18:52 Sunny 51 10.6 31 -0.6 46 46 N N/A 30.43 1031 10 16 N/A
7:52 pm 19:52 Clear 45 7.2 33 0.6 63 63 N N/A 30.44 1031 9 14 N/A
8:52 pm 20:52 Clear 41 5 35 1.7 79 79 N N/A 30.43 1031 10 16 N/A
9:52 pm 21:52 Clear 41 5 35 1.7 79 79 N N/A 30.43 1030 10 16 N/A
10:52 pm 22:52 Clear 41 5 34 1.1 76 76 N N/A 30.42 1030 10 16 N/A
11:52 pm 23:52 Clear 40 4.4 36 2.2 86 86 N N/A 30.40 1029 10 16 N/A

Powered by AerisWeather